EDT,Max TemperatureF,Mean TemperatureF,Min TemperatureF,Max Dew PointF,MeanDew PointF,Min DewpointF,Max Humidity, Mean Humidity, Min Humidity, Max Sea Level PressureIn, Mean Sea Level PressureIn, Min Sea Level PressureIn, Max VisibilityMiles, Mean VisibilityMiles, Min VisibilityMiles, Max Wind SpeedMPH, Mean Wind SpeedMPH, Max Gust SpeedMPH,PrecipitationIn, CloudCover, Events, WindDirDegrees
2012-10-1,60,60,59,61,59,59,100,100,100,29.92,29.88,29.86,10,4,1,9,2,,0.06,6,Rain,71
2012-10-2,80,70,60,77,70,61,100,96,74,29.98,29.86,29.80,10,6,1,10,2,23,0.53,5,Rain,155
2012-10-3,78,71,64,70,65,63,100,86,61,30.21,30.10,29.98,10,7,0,6,1,,0.00,2,Fog,211
2012-10-4,77,68,59,66,62,57,100,88,50,30.26,30.21,30.18,10,10,4,6,1,,0.00,0,Rain,275
2012-10-5,77,64,51,63,56,52,100,82,41,30.22,30.13,30.04,10,8,2,6,0,,0.00,0,,178
2012-10-6,78,66,55,64,59,55,100,82,47,30.03,29.96,29.91,10,8,1,5,1,,0.12,,Rain,233
2012-10-7,57,54,50,57,51,50,100,99,88,30.15,30.06,29.98,10,9,2,9,2,25,0.80,,Rain,29
2012-10-8,50,46,42,50,45,41,100,95,81,30.23,30.18,30.14,10,8,2,8,3,,0.19,,Rain,23
2012-10-9,55,48,42,54,48,43,100,94,77,30.19,30.13,30.09,10,10,7,6,1,,0.00,,,19
2012-10-10,68,57,46,54,49,46,100,79,49,30.15,30.07,30.02,10,10,10,6,1,,0.00,0,,258
2012-10-11,64,53,42,50,41,34,100,69,32,30.31,30.24,30.15,10,10,10,7,1,,0.00,0,,60
2012-10-12,69,55,41,52,46,41,100,83,43,30.32,30.23,30.19,10,9,5,5,0,,0.00,0,,321
2012-10-13,62,52,42,48,41,36,100,69,45,30.49,30.40,30.34,10,10,7,7,2,,0.00,0,,64
2012-10-14,69,55,41,61,52,41,100,86,60,30.33,30.20,30.04,10,8,4,8,1,,0.00,2,,190
2012-10-15,71,60,50,68,57,43,100,85,43,30.04,29.87,29.74,10,9,2,7,1,,0.09,3,Rain,217
2012-10-16,66,54,41,48,44,41,100,74,40,29.99,29.93,29.88,10,10,5,6,1,,0.00,0,,318
2012-10-17,69,56,42,52,46,43,100,76,38,30.01,29.95,29.91,10,9,4,8,1,,0.00,0,,168
2012-10-18,71,56,42,64,54,43,100,91,64,29.92,29.85,29.78,10,9,1,9,1,,0.04,0,Rain,178
2012-10-19,69,60,50,59,47,34,100,71,30,29.79,29.76,29.71,10,6,0,13,1,17,0.00,,Fog,214
2012-10-20,66,54,41,46,42,37,100,67,40,29.99,29.84,29.76,10,10,10,6,1,,0.00,,,308
2012-10-21,64,50,37,45,41,37,100,78,37,30.16,30.10,29.99,10,10,7,7,0,,0.00,,,352
2012-10-22,71,53,35,52,47,36,100,73,38,30.25,30.19,30.15,10,9,4,4,0,,0.00,,,273
2012-10-23,77,60,42,54,49,43,100,77,34,30.21,30.16,30.11,10,8,2,7,1,,0.00,,,199
2012-10-24,78,61,44,54,50,45,100,77,36,30.21,30.15,30.10,10,8,2,6,0,,0.00,,,211
2012-10-25,78,61,44,59,53,45,100,80,44,30.18,30.13,30.10,10,8,3,7,1,,0.00,,,166
2012-10-26,66,58,50,59,56,50,100,93,73,30.13,30.06,29.97,10,8,4,8,1,,0.00,,,37
2012-10-27,68,64,59,61,56,50,100,82,56,29.96,29.82,29.74,10,9,5,12,5,20,0.00,,,18
2012-10-28,68,59,50,50,46,37,82,64,43,29.75,29.68,29.61,10,10,10,10,5,18,0.00,,,347
2012-10-29,48,44,41,37,33,30,76,62,54,29.67,29.57,29.42,10,10,10,14,7,28,0.18,1,Rain,301
2012-10-30,50,46,41,32,30,28,70,57,46,29.62,29.47,29.37,10,10,10,10,6,24,0.00,1,,252
2012-10-31,51,42,33,36,33,32,100,70,47,29.78,29.70,29.62,10,10,10,12,1,17,0.00,1,,268